Temp
-22 -22 -21 -21 -21 -21 -21 -21 -21 -22 -22 -23 -23 -23 -23 -23 -23 -23 -23 -23 -22 -22 -22 -22 -21 -21 -21 -21 -20 -20 -19 -18 -18 -18 -17 -17 -17 -18 -18 -18 -17 -17 -16 -16
-22 -22 -22 -21 -20 -21 -21 -22 -22 -22 -22 -23 -23 -23 -23 -23 -23 -24 -23 -23 -23 -23 -22 -22 -21 -21 -20 -20 -19 -19 -19 -18 -18 -18 -18 -19 -18 -18 -18 -18 -18 -17 -17 -17
-22 -22 -22 -21 -20 -21 -22 -22 -22 -23 -23 -23 -23 -23 -23 -23 -23 -23 -22 -22 -22 -22 -22 -21 -21 -21 -20 -20 -20 -19 -19 -19 -19 -19 -19 -18 -19 -18 -18 -18 -18 -17 -17 -17
-22 -22 -21 -21 -21 -21 -22 -22 -23 -23 -23 -23 -23 -23 -23 -23 -23 -23 -23 -23 -22 -22 -22 -22 -22 -21 -21 -20 -20 -21 -21 -21 -20 -20 -19 -19 -19 -19 -18 -18 -18 -17 -17 -17
-22 -22 -21 -21 -21 -22 -23 -23 -23 -23 -23 -23 -23 -23 -23 -23 -24 -24 -24 -24 -24 -24 -24 -24 -24 -23 -23 -23 -23 -22 -22 -22 -21 -21 -20 -20 -20 -20 -19 -19 -18 -18 -17 -17
-22 -22 -21 -21 -22 -23 -23 -22 -23 -22 -23 -23 -24 -24 -24 -25 -25 -25 -25 -26 -26 -26 -26 -25 -25 -25 -24 -23 -23 -22 -22 -22 -21 -22 -22 -21 -21 -20 -20 -19 -19 -19 -19 -18
-23 -22 -21 -22 -23 -22 -22 -23 -23 -23 -24 -24 -24 -24 -25 -25 -25 -25 -25 -26 -26 -26 -26 -25 -25 -24 -24 -24 -23 -22 -22 -23 -23 -23 -23 -22 -22 -22 -22 -22 -21 -21 -20 -19
-23 -23 -23 -23 -23 -23 -23 -24 -24 -24 -24 -24 -24 -24 -25 -25 -25 -25 -25 -25 -25 -25 -25 -25 -25 -24 -24 -23 -23 -23 -23 -22 -22 -22 -22 -21 -21 -20 -21 -21 -21 -21 -21 -21
-23 -23 -23 -23 -23 -24 -24 -24 -24 -24 -24 -24 -24 -24 -24 -24 -24 -25 -25 -25 -25 -25 -25 -25 -25 -25 -24 -23 -24 -24 -23 -22 -22 -22 -22 -21 -21 -21 -21 -21 -21 -21 -20 -20
-24 -23 -23 -23 -24 -24 -24 -24 -24 -24 -24 -24 -24 -24 -24 -24 -25 -25 -25 -25 -25 -25 -25 -25 -25 -24 -24 -24 -23 -23 -23 -23 -22 -22 -22 -21 -21 -21 -21 -21 -21 -21 -21 -20
-24 -24 -24 -24 -24 -24 -24 -24 -24 -24 -24 -24 -24 -25 -24 -24 -24 -25 -25 -25 -25 -24 -24 -24 -24 -24 -23 -23 -23 -23 -23 -23 -22 -22 -22 -22 -21 -22 -22 -22 -22 -22 -22 -21
-24 -24 -25 -24 -24 -24 -24 -24 -24 -24 -24 -24 -24 -25 -25 -24 -24 -25 -25 -25 -24 -24 -24 -25 -24 -24 -23 -23 -23 -23 -23 -23 -23 -22 -22 -22 -22 -22 -22 -23 -23 -23 -22 -22
-24 -25 -25 -24 -24 -24 -24 -24 -24 -24 -24 -24 -24 -24 -24 -24 -24 -24 -24 -24 -24 -25 -24 -24 -24 -24 -23 -24 -23 -23 -23 -23 -23 -23 -22 -22 -22 -22 -23 -23 -24 -24 -24 -24
-25 -25 -25 -25 -25 -24 -24 -24 -24 -24 -24 -24 -24 -24 -25 -25 -24 -24 -24 -24 -25 -24 -24 -24 -24 -24 -24 -24 -24 -23 -23 -23 -23 -23 -22 -22 -23 -23 -24 -24 -24 -24 -24 -24
-25 -25 -25 -25 -25 -25 -25 -25 -25 -25 -25 -25 -25 -25 -25 -25 -25 -25 -25 -25 -25 -25 -25 -24 -24 -24 -24 -24 -24 -24 -23 -23 -23 -23 -23 -23 -24 -24 -25 -25 -25 -25 -25 -24
-26 -26 -25 -25 -25 -25 -25 -25 -25 -25 -25 -25 -25 -25 -25 -25 -25 -25 -25 -25 -25 -25 -25 -25 -24 -24 -24 -24 -24 -24 -24 -24 -24 -24 -24 -24 -24 -25 -25 -25 -25 -25 -24 -24
-26 -26 -26 -26 -25 -25 -25 -25 -26 -25 -25 -25 -25 -25 -25 -25 -25 -25 -25 -25 -25 -25 -25 -24 -24 -24 -24 -24 -24 -24 -25 -25 -25 -25 -25 -25 -25 -25 -25 -25 -24 -24 -24 -24
-26 -26 -26 -26 -26 -26 -26 -26 -26 -26 -26 -25 -26 -26 -26 -25 -25 -25 -25 -25 -25 -25 -24 -24 -24 -25 -25 -25 -25 -25 -25 -25 -25 -25 -25 -25 -25 -25 -25 -24 -24 -24 -24 -24
-26 -27 -27 -26 -26 -26 -26 -26 -26 -26 -26 -26 -26 -26 -26 -26 -25 -25 -25 -25 -25 -25 -25 -25 -25 -25 -25 -25 -26 -26 -26 -25 -25 -25 -25 -25 -25 -25 -25 -24 -24 -24 -24 -24
-27 -27 -27 -27 -27 -26 -26 -26 -26 -26 -26 -26 -27 -27 -26 -26 -26 -26 -25 -25 -25 -25 -26 -26 -26 -26 -26 -26 -26 -26 -26 -26 -26 -26 -25 -25 -25 -25 -25 -25 -25 -25 -24 -24
-28 -28 -27 -27 -27 -27 -27 -27 -26 -26 -26 -26 -26 -26 -26 -26 -26 -26 -26 -26 -26 -26 -26 -26 -26 -26 -26 -26 -26 -26 -26 -26 -26 -26 -26 -25 -25 -25 -25 -25 -25 -25 -25 -24
-28 -28 -28 -28 -28 -27 -27 -27 -27 -27 -27 -27 -27 -27 -27 -26 -26 -27 -27 -27 -26 -26 -26 -26 -26 -26 -26 -27 -27 -27 -27 -27 -26 -26 -26 -26 -26 -25 -25 -25 -25 -25 -26 -26
-28 -28 -28 -28 -28 -28 -28 -28 -28 -28 -28 -28 -28 -27 -27 -27 -27 -27 -27 -27 -27 -27 -27 -27 -27 -27 -27 -27 -27 -27 -27 -27 -27 -27 -26 -26 -26 -26 -26 -26 -26 -27 -27 -27
-29 -29 -29 -28 -28 -28 -28 -28 -28 -28 -28 -28 -28 -28 -28 -28 -28 -27 -27 -27 -27 -27 -27 -27 -27 -27 -27 -27 -27 -27 -27 -27 -27 -27 -27 -27 -27 -27 -27 -27 -27 -27 -27 -28
-29 -29 -29 -29 -28 -28 -28 -28 -28 -28 -28 -28 -28 -28 -28 -28 -28 -28 -28 -28 -28 -28 -27 -28 -28 -28 -28 -28 -28 -28 -27 -27 -28 -28 -28 -28 -27 -27 -28 -28 -28 -29 -30 -31
-29 -29 -29 -29 -28 -28 -28 -28 -28 -28 -28 -28 -28 -28 -28 -28 -28 -28 -28 -28 -28 -28 -28 -28 -28 -28 -28 -28 -28 -28 -28 -28 -28 -28 -28 -28 -28 -28 -29 -29 -31 -32 -33 -33
-28 -28 -29 -29 -28 -28 -28 -28 -28 -28 -28 -28 -28 -28 -28 -28 -28 -28 -28 -28 -28 -28 -28 -28 -28 -28 -28 -29 -29 -29 -29 -28 -28 -29 -29 -29 -29 -30 -31 -32 -33 -34 -34 -35
Height
5593 5593 5593 5593 5590 5589 5588 5586 5580 5578 5574 5573 5573 5570 5568 5565 5562 5560 5559 5557 5555 5554 5553 5552 5553 5553 5554 5554 5552 5550 5546 5543 5545 5543 5540 5536 5530 5526 5523 5522 5520 5519 5517 5518
5583 5584 5583 5581 5581 5581 5578 5575 5569 5567 5565 5566 5564 5562 5559 5556 5553 5551 5549 5548 5547 5546 5544 5542 5540 5541 5543 5539 5538 5537 5538 5538 5535 5531 5527 5525 5523 5520 5517 5516 5515 5510 5507 5507
5574 5574 5573 5572 5573 5571 5568 5562 5560 5558 5558 5556 5554 5552 5550 5547 5545 5542 5540 5537 5536 5535 5534 5533 5533 5533 5533 5533 5533 5533 5532 5529 5527 5525 5522 5520 5518 5514 5512 5510 5507 5503 5500 5501
5565 5565 5563 5564 5562 5561 5557 5554 5551 5549 5548 5547 5544 5542 5540 5539 5536 5534 5532 5530 5528 5527 5526 5525 5526 5527 5528 5528 5528 5527 5527 5527 5524 5522 5519 5517 5515 5511 5507 5506 5502 5498 5495 5496
5557 5556 5555 5553 5554 5550 5547 5546 5546 5542 5540 5538 5536 5533 5531 5527 5526 5524 5522 5518 5517 5515 5515 5516 5517 5518 5519 5521 5523 5524 5524 5524 5523 5520 5517 5515 5512 5508 5506 5502 5498 5495 5493 5493
5548 5547 5544 5545 5544 5540 5537 5539 5535 5534 5532 5529 5528 5525 5523 5521 5519 5517 5515 5513 5510 5509 5510 5510 5512 5514 5516 5517 5519 5520 5521 5522 5520 5518 5515 5513 5510 5506 5504 5500 5497 5495 5493 5491
5539 5537 5536 5538 5535 5533 5532 5534 5528 5526 5524 5522 5520 5518 5517 5514 5512 5511 5510 5509 5507 5505 5506 5508 5509 5511 5513 5516 5518 5518 5518 5518 5519 5519 5516 5514 5512 5509 5507 5503 5499 5497 5494 5491
5531 5530 5530 5529 5528 5527 5525 5522 5520 5519 5518 5516 5514 5512 5510 5508 5507 5505 5505 5504 5504 5504 5505 5506 5507 5509 5512 5515 5515 5515 5518 5520 5520 5519 5517 5514 5512 5511 5508 5504 5502 5500 5498 5497
5524 5524 5523 5522 5521 5520 5519 5517 5515 5514 5512 5509 5507 5505 5504 5503 5503 5502 5502 5502 5502 5503 5504 5505 5506 5509 5513 5513 5514 5516 5518 5520 5519 5517 5516 5513 5512 5510 5508 5506 5504 5502 5500 5498
5516 5517 5516 5515 5515 5515 5514 5513 5511 5509 5507 5505 5502 5501 5499 5499 5499 5500 5500 5501 5502 5503 5504 5505 5509 5512 5512 5514 5515 5516 5519 5519 5518 5516 5514 5512 5511 5509 5508 5506 5503 5501 5500 5498
5510 5510 5511 5510 5511 5510 5509 5508 5507 5505 5503 5501 5499 5498 5498 5498 5499 5499 5500 5501 5502 5503 5505 5508 5511 5513 5515 5515 5516 5517 5518 5518 5516 5514 5512 5510 5508 5507 5505 5504 5502 5500 5497 5494
5505 5506 5506 5506 5506 5505 5504 5504 5503 5501 5500 5499 5499 5498 5498 5498 5498 5500 5501 5502 5504 5505 5508 5511 5513 5514 5514 5515 5516 5517 5517 5516 5513 5511 5509 5507 5505 5503 5501 5498 5496 5495 5493 5490
5501 5502 5503 5502 5502 5502 5501 5500 5499 5498 5498 5497 5497 5498 5497 5498 5500 5501 5502 5504 5505 5507 5510 5512 5513 5515 5514 5514 5515 5515 5514 5512 5510 5508 5505 5503 5500 5497 5495 5493 5490 5488 5486 5484
5497 5499 5499 5499 5499 5498 5498 5498 5497 5496 5496 5496 5496 5497 5497 5499 5501 5502 5504 5505 5507 5508 5510 5511 5512 5512 5512 5513 5512 5511 5509 5507 5505 5502 5499 5497 5494 5492 5489 5487 5485 5483 5482 5479
5493 5494 5496 5496 5496 5496 5495 5495 5495 5495 5495 5495 5495 5497 5498 5500 5501 5502 5503 5505 5506 5508 5509 5509 5510 5510 5509 5509 5507 5505 5503 5500 5498 5495 5493 5491 5488 5486 5484 5482 5480 5477 5474 5472
5489 5490 5491 5492 5493 5493 5492 5492 5493 5493 5494 5494 5495 5496 5498 5499 5500 5502 5503 5504 5505 5506 5507 5507 5506 5505 5504 5502 5501 5499 5496 5494 5491 5489 5487 5484 5483 5481 5478 5475 5472 5470 5467 5463
5486 5487 5488 5489 5489 5489 5490 5489 5490 5491 5492 5493 5494 5495 5496 5497 5499 5499 5500 5501 5502 5502 5502 5501 5500 5499 5498 5496 5493 5491 5488 5486 5484 5482 5480 5478 5475 5472 5469 5466 5463 5459 5455 5450
5481 5482 5483 5485 5485 5485 5485 5486 5486 5487 5488 5489 5490 5491 5492 5493 5494 5496 5497 5497 5497 5497 5496 5495 5494 5492 5491 5489 5487 5484 5481 5478 5476 5474 5471 5468 5465 5462 5458 5455 5450 5445 5440 5435
5475 5477 5478 5479 5480 5481 5481 5481 5482 5482 5483 5484 5486 5487 5487 5488 5490 5491 5491 5491 5491 5490 5489 5488 5487 5485 5483 5481 5479 5476 5474 5471 5468 5465 5462 5459 5455 5451 5447 5442 5437 5431 5425 5419
5470 5471 5473 5474 5474 5475 5476 5477 5478 5478 5479 5480 5481 5481 5482 5483 5484 5485 5485 5485 5484 5483 5482 5481 5479 5477 5475 5472 5470 5467 5464 5461 5457 5454 5451 5447 5442 5438 5432 5427 5421 5415 5408 5402
5464 5466 5467 5468 5469 5470 5471 5471 5472 5473 5474 5475 5476 5477 5478 5478 5479 5478 5478 5478 5477 5476 5474 5473 5471 5469 5466 5463 5460 5457 5453 5450 5446 5443 5438 5433 5428 5423 5417 5410 5404 5397 5389 5381
5459 5461 5462 5463 5463 5464 5465 5466 5466 5467 5468 5469 5470 5471 5472 5472 5472 5472 5472 5471 5470 5468 5467 5465 5462 5459 5456 5453 5450 5446 5442 5438 5434 5429 5424 5419 5413 5407 5400 5392 5384 5376 5367 5359
5456 5456 5457 5457 5458 5459 5460 5460 5461 5462 5463 5464 5464 5465 5466 5466 5466 5466 5465 5463 5462 5460 5459 5456 5453 5450 5447 5443 5439 5435 5431 5426 5421 5416 5410 5404 5397 5390 5382 5374 5365 5355 5345 5335
5453 5452 5453 5454 5454 5455 5456 5456 5457 5458 5459 5459 5460 5460 5460 5460 5459 5458 5457 5456 5454 5452 5450 5447 5444 5441 5437 5433 5428 5423 5419 5414 5408 5402 5395 5388 5381 5373 5364 5354 5344 5332 5321 5309
5450 5451 5451 5452 5452 5453 5453 5454 5454 5455 5455 5455 5455 5455 5454 5454 5453 5452 5450 5448 5446 5443 5441 5437 5434 5430 5426 5421 5416 5412 5406 5400 5394 5387 5380 5373 5364 5354 5344 5334 5322 5309 5298 5287
5448 5449 5449 5449 5450 5450 5450 5451 5451 5450 5450 5450 5449 5449 5448 5447 5446 5444 5442 5440 5437 5433 5430 5427 5423 5419 5415 5410 5404 5399 5394 5388 5381 5373 5365 5356 5346 5335 5324 5312 5301 5290 5279 5268
5445 5445 5446 5446 5446 5446 5446 5446 5446 5445 5445 5444 5444 5443 5441 5440 5437 5435 5433 5430 5427 5424 5420 5416 5412 5407 5403 5398 5393 5387 5381 5374 5366 5358 5349 5339 5328 5317 5306 5295 5285 5274 5263 5252
Wind_Speed
37 37 36 33 32 35 38 43 50 47 44 43 38 40 42 42 42 43 41 38 33 32 32 34 33 32 35 35 34 38 39 40 46 51 54 55 52 45 43 38 37 39 44 51
32 32 34 34 35 39 41 44 45 38 37 34 35 37 40 42 43 42 42 40 37 36 36 37 36 37 39 36 35 37 40 43 44 45 41 33 29 31 30 31 29 25 30 28
36 34 34 37 37 41 41 41 37 36 34 37 41 39 39 40 41 42 43 44 45 44 43 43 43 42 41 39 37 37 36 36 33 32 32 27 24 28 20 17 21 19 16 21
39 37 39 39 41 39 35 33 33 33 36 39 39 40 42 43 46 47 48 49 49 48 48 47 45 42 39 35 32 27 22 22 16 15 17 18 17 11 12 14 11 11 7 8
36 39 39 40 37 36 34 32 29 32 37 40 42 41 38 39 36 35 35 37 38 36 34 33 31 25 19 14 13 14 12 5 6 9 10 11 12 11 6 8 9 4 5 3
36 38 39 37 30 28 30 28 33 34 32 32 31 30 29 28 27 24 20 20 21 22 21 17 10 10 10 9 10 10 10 11 9 12 16 18 17 12 16 14 13 15 16 12
35 37 37 27 27 31 32 27 27 27 27 27 26 26 25 25 25 25 22 20 17 10 8 8 9 7 8 9 12 18 16 14 13 13 14 15 17 18 18 20 25 27 23 17
33 34 30 27 27 25 26 24 24 23 20 22 22 23 24 22 19 18 19 14 11 8 6 6 5 6 8 19 20 19 14 12 12 12 13 15 16 17 21 21 18 19 19 20
29 26 26 24 23 22 19 20 20 20 23 24 21 19 17 15 16 16 13 10 6 7 7 6 6 9 18 18 17 16 12 10 9 10 12 13 15 18 20 20 20 19 17 16
23 21 24 23 18 17 19 19 18 20 19 16 17 14 11 11 12 8 5 6 7 8 9 10 11 17 18 17 14 13 9 6 7 9 11 14 16 19 20 20 20 19 16 14
21 19 18 16 16 18 20 17 17 17 13 11 9 6 7 8 5 5 7 8 8 13 13 13 15 14 14 14 12 6 2 2 6 10 14 17 21 23 24 22 20 20 18 16
18 14 13 13 15 16 15 14 14 12 10 10 3 6 9 6 7 9 9 11 15 16 14 14 13 14 13 9 5 4 6 8 10 14 17 22 25 27 28 26 24 21 18 17
13 11 10 10 12 14 13 13 11 11 10 7 9 8 9 9 11 13 15 16 14 16 11 11 9 9 6 5 8 10 13 14 16 19 21 25 29 30 28 24 21 18 16 15
13 12 10 9 10 11 13 12 9 9 8 7 8 11 12 13 15 16 16 17 15 13 12 10 8 8 10 12 15 17 18 19 22 24 27 29 29 28 22 19 19 20 21 22
13 14 15 14 14 10 11 12 9 8 8 9 10 13 14 15 16 18 17 14 11 11 12 12 13 15 18 19 21 22 24 26 28 29 28 26 24 22 22 25 27 28 29 29
11 12 14 15 16 14 10 12 12 10 10 10 11 14 14 14 17 16 15 11 10 12 14 16 18 20 22 25 27 28 29 31 30 26 25 25 26 28 30 31 31 32 33 35
14 14 13 13 15 15 13 11 12 17 16 15 15 15 17 19 19 15 14 13 15 17 18 20 22 24 27 28 30 32 32 30 28 28 31 33 32 34 35 36 37 38 41 42
19 21 20 19 14 15 16 15 15 14 15 18 17 16 17 19 17 19 16 19 19 21 23 24 26 28 30 31 31 31 31 31 33 35 38 38 36 38 41 42 43 45 48 51
19 18 19 20 19 19 16 16 15 16 18 18 17 19 19 18 20 20 19 20 22 23 24 26 27 28 29 31 32 33 34 35 38 40 39 38 40 43 45 47 50 53 56 59
21 20 20 18 16 18 21 20 18 17 16 16 15 16 16 18 18 18 19 21 23 25 26 27 28 29 31 33 35 37 39 40 41 41 41 42 45 48 51 54 57 60 64 67
20 22 21 20 18 18 18 20 22 22 20 19 18 18 19 19 20 21 23 23 24 25 27 28 30 32 34 36 38 39 40 41 42 43 44 46 49 53 57 60 64 68 71 74
16 15 17 21 23 22 21 19 20 21 21 21 21 21 21 21 22 23 23 22 25 27 29 30 32 34 36 36 38 40 41 42 44 45 48 51 54 58 62 65 69 72 74 77
12 15 16 14 13 14 16 16 16 16 17 17 18 20 21 21 22 22 23 25 27 28 30 30 32 34 36 38 40 43 44 46 48 50 53 56 58 61 64 68 71 75 77 80
9 6 4 5 7 8 9 10 12 13 15 17 19 20 20 22 22 23 24 26 27 29 31 34 36 38 40 42 44 46 47 49 51 53 54 56 60 64 68 72 75 78 81 82
7 6 7 6 7 7 7 9 10 11 13 14 15 17 19 21 23 25 26 29 31 33 35 37 39 41 42 44 44 46 47 49 50 52 56 60 64 68 71 75 78 77 74 71
7 6 7 7 8 8 8 8 9 11 13 14 16 18 20 23 25 28 30 33 34 36 38 39 40 41 42 43 44 45 45 47 52 56 60 63 67 71 74 74 70 67 66 66
9 9 8 8 10 11 12 12 13 15 16 18 19 21 23 24 26 28 31 33 35 36 37 38 39 40 40 40 41 43 48 52 56 58 62 67 70 70 66 63 62 63 62 59
Wind_Direction
261 266 265 272 280 284 284 286 288 289 279 282 280 281 284 283 284 287 288 290 287 285 283 283 284 282 282 284 282 287 294 295 291 290 289 288 287 284 281 276 273 272 268 263
257 263 270 272 278 287 291 289 285 277 274 278 279 277 276 280 284 287 289 288 288 290 291 290 291 290 290 297 297 298 297 295 296 294 290 284 285 282 273 274 273 284 270 265
265 269 269 272 281 290 291 287 278 271 276 278 280 280 280 281 283 285 286 289 291 291 289 288 287 289 294 295 297 294 292 294 290 289 285 282 284 296 280 284 282 291 269 252
264 272 273 279 282 291 285 275 273 275 276 278 279 280 282 284 284 287 287 285 283 283 282 282 283 284 286 285 282 279 280 283 300 305 293 289 293 285 294 291 299 312 294 268
263 268 275 281 291 284 276 274 276 275 274 278 281 284 287 285 287 287 289 287 284 280 280 281 284 283 271 251 249 256 255 247 189 153 140 128 110 102 119 101 74 32 346 284
262 270 278 286 286 279 276 281 276 280 281 286 291 289 287 289 290 291 290 288 277 277 276 272 240 221 212 219 230 222 197 178 131 74 54 52 49 50 42 58 65 72 68 68
265 274 280 286 278 279 282 279 283 288 294 293 289 284 283 283 279 277 282 273 282 266 234 222 213 202 205 196 188 158 131 107 94 84 68 55 47 43 35 32 30 27 23 43
268 274 276 277 278 279 283 285 290 292 293 291 288 284 283 280 277 274 267 269 267 263 229 220 210 188 188 182 146 121 120 121 110 95 78 62 49 37 30 33 31 27 21 16
261 265 274 277 278 277 276 285 289 290 295 293 290 288 273 263 263 261 262 253 235 212 197 174 165 177 175 141 124 127 127 120 99 74 52 42 30 18 13 9 12 12 8 4
261 265 267 273 270 265 278 280 286 289 288 294 294 285 257 249 249 236 215 214 204 184 157 145 163 166 146 134 136 126 128 97 60 43 34 22 9 360 351 348 348 347 346 344
256 260 265 273 270 264 278 278 286 288 285 296 289 231 199 169 184 200 203 192 180 153 140 151 162 146 149 145 143 149 155 36 16 0 356 353 346 339 332 327 326 322 319 318
255 253 267 278 273 273 266 277 282 285 262 254 247 185 182 177 175 182 181 164 157 146 148 155 162 168 158 162 191 242 275 298 324 334 337 333 325 318 315 313 310 306 300 299
239 248 270 283 283 267 267 268 281 280 258 241 221 205 196 182 173 168 161 159 156 153 164 168 177 194 203 240 267 280 290 301 312 315 314 311 311 308 307 305 303 302 303 303
231 243 247 272 288 283 252 257 270 266 239 213 204 198 185 174 171 170 172 166 159 172 186 198 214 232 243 259 270 281 291 299 302 304 306 306 306 303 299 298 298 297 296 299
242 245 249 258 271 286 257 244 245 245 229 204 195 194 185 180 182 186 177 177 191 206 219 229 241 257 266 273 280 286 293 299 300 298 297 294 295 293 291 294 298 300 301 301
248 255 258 259 259 267 267 240 229 230 216 206 202 197 193 193 197 197 203 212 221 240 251 262 269 277 283 285 287 289 294 296 293 286 284 283 282 287 293 296 296 296 297 300
248 249 245 246 252 258 253 242 238 233 228 220 212 212 207 209 216 224 226 239 255 263 271 277 283 285 286 288 292 294 293 287 282 281 282 285 289 293 296 296 297 298 299 301
253 248 249 252 248 254 249 244 236 234 234 231 221 218 221 221 229 235 247 259 268 276 279 281 285 287 288 290 292 291 290 288 288 290 291 289 288 292 293 294 298 300 302 304
256 247 246 245 248 250 253 245 246 241 239 236 232 231 232 234 239 250 264 273 273 277 280 283 285 288 291 292 291 291 291 292 292 292 291 288 289 291 293 296 297 300 303 303
243 238 242 242 245 243 242 250 251 245 245 250 252 255 254 250 251 258 264 274 281 283 283 285 288 291 292 293 293 292 292 293 294 295 292 290 291 295 296 297 300 302 302 303
241 238 241 241 248 253 251 248 244 248 251 250 249 250 253 257 259 263 269 274 279 282 285 287 290 291 293 294 293 293 293 293 293 291 291 292 295 296 298 300 301 302 303 303
241 239 248 253 254 251 250 252 251 247 248 251 254 256 256 260 265 268 272 279 283 285 287 288 291 295 297 297 295 293 292 291 291 292 294 296 297 298 301 303 304 304 304 303
253 255 258 249 245 247 250 253 252 250 249 254 255 256 257 260 265 270 275 280 282 284 287 291 294 295 295 295 295 295 295 296 297 298 298 299 302 304 304 305 305 305 306 306
264 247 253 251 254 245 240 240 243 247 251 255 256 259 261 265 269 273 276 280 283 287 291 293 293 293 294 295 296 297 298 299 299 301 303 305 306 306 307 308 308 309 310 311
251 223 240 248 250 246 241 241 244 248 251 256 261 264 269 273 276 280 283 286 288 289 290 293 296 297 297 298 299 299 300 302 304 307 308 308 309 310 311 312 313 314 314 314
259 257 261 248 252 252 256 265 273 276 276 276 277 278 281 283 286 287 286 288 291 294 295 296 297 298 298 299 301 303 305 308 309 310 311 312 313 314 316 317 317 317 318 318
271 280 285 278 272 272 272 274 275 278 282 283 283 284 286 288 291 293 294 294 292 293 294 295 296 299 301 304 306 308 310 311 312 313 314 316 317 318 319 320 321 321 322 322